sat.trackr.live / text

‹ back to catalog

PROPCUBE 3

NORAD 40973 · 2015-058K

PAYLOAD ACTIVE UNKNOWN

§ Identity

Operator
Country
US
Launch date
2015-10-08
Launch site
AFWTR
Launch vehicle
Mass (kg)
RCS (m²)

Purposes: tech_demo

External: N2YO · Heavens-Above · Gunter

§ Orbital elements

Epoch: 2026-05-24T20:24:51.516864Z

Period
96.38 min
Inclination
64.7693°
Eccentricity
0.0123248
Mean motion
14.94081071 rev/d
Perigee alt
499.4 km
Apogee alt
671.0 km
Semi-major
6,963.4 km
B*
2.8947e-4
RAAN
325.4394°
Arg perigee
69.2334°
Mean anomaly
292.1933°
Rev number
11,131

§ Raw data

PROPCUBE 31 40973U 15058K   26144.85059626  .00003423  00000+0  28947-3 0  99942 40973  64.7693 325.4394 0123248  69.2334 292.1933 14.94081071111318

JSON: /api/v1/satellites/40973 · /tle

For live sub-satellite position, see the globe view (requires WebGL).

§ Visibility from observer

Set your observer location to see the next 7 days of passes ≥ 10°. The values pass through the URL so the page stays shareable.

No JS? Fill the form by hand. The geolocation button needs JavaScript.